FIN3AW EFHK-EDDB

Flight info

Callsign FIN3AW
Flight time N/A
Altitude 36000
Route VALOX DCT DANKA DCT ROSAX DCT LEMSI DCT PIMEX P739 DEREX DCT GOSOT Z131 BANUB DCT CIPPI DCT USEDU/N0451F370 Z14 BEKBA T280 KETAP KETAP1R
Aircraft A321/M-SDE3FGHIRWY/LB1

Departure

Time 2026-05-07 19:22
Airport Helsinki Vantaa Airport (EFHK)

Arrival

Time N/A
Airport Berlin Brandenburg Airport (EDDB)
Time Latitude Longitude Altitude Speed Heading
2026-05-07 18:57 60.31874 24.96540 167 ft 0 kts 137°
2026-05-07 19:11 60.31881 24.96527 167 ft 4 kts 137°
2026-05-07 19:11 60.31900 24.96491 167 ft 4 kts 119°
2026-05-07 19:12 60.31905 24.96446 167 ft 4 kts 70°
2026-05-07 19:12 60.31896 24.96414 167 ft 0 kts 47°
2026-05-07 19:15 60.31900 24.96422 167 ft 2 kts 47°
2026-05-07 19:15 60.31918 24.96462 167 ft 5 kts 48°
2026-05-07 19:15 60.31946 24.96527 167 ft 7 kts 48°
2026-05-07 19:16 60.31978 24.96598 167 ft 5 kts 48°
2026-05-07 19:16 60.32011 24.96668 167 ft 7 kts 46°
2026-05-07 19:16 60.32044 24.96738 167 ft 5 kts 48°
2026-05-07 19:16 60.32048 24.96748 167 ft 0 kts 49°
2026-05-07 19:17 60.32058 24.96770 167 ft 5 kts 49°
2026-05-07 19:17 60.32097 24.96852 167 ft 11 kts 36°
2026-05-07 19:18 60.32171 24.96814 166 ft 12 kts 330°
2026-05-07 19:18 60.32249 24.96729 166 ft 11 kts 330°
2026-05-07 19:18 60.32285 24.96687 167 ft 5 kts 330°
2026-05-07 19:18 60.32317 24.96651 169 ft 4 kts 329°
2026-05-07 19:19 60.32319 24.96648 169 ft 1 kts 329°
2026-05-07 19:19 60.32326 24.96640 170 ft 2 kts 330°
2026-05-07 19:19 60.32338 24.96626 171 ft 2 kts 330°
2026-05-07 19:19 60.32344 24.96618 171 ft 0 kts 329°
2026-05-07 19:20 60.32345 24.96617 171 ft 0 kts 329°
2026-05-07 19:21 60.32365 24.96595 173 ft 7 kts 330°
2026-05-07 19:21 60.32420 24.96530 175 ft 9 kts 313°
2026-05-07 19:21 60.32416 24.96477 175 ft 0 kts 230°
2026-05-07 19:21 60.32373 24.96376 177 ft 44 kts 229°
2026-05-07 19:22 60.31940 24.95422 174 ft 136 kts 227°
2026-05-07 19:22 60.31167 24.93720 512 ft 179 kts 227°
2026-05-07 19:22 60.30273 24.91820 1465 ft 191 kts 225°
2026-05-07 19:22 60.29172 24.90275 2174 ft 203 kts 212°
2026-05-07 19:23 60.27855 24.88840 2613 ft 227 kts 210°
2026-05-07 19:23 60.26392 24.87324 3322 ft 242 kts 209°
2026-05-07 19:23 60.24876 24.85752 4255 ft 247 kts 209°
2026-05-07 19:23 60.23310 24.84264 5173 ft 253 kts 197°
2026-05-07 19:24 60.22166 24.83726 5790 ft 254 kts 193°
2026-05-07 19:24 60.19847 24.82712 7064 ft 256 kts 194°
2026-05-07 19:24 60.18101 24.81924 7962 ft 258 kts 194°
2026-05-07 19:24 60.16348 24.81119 8882 ft 259 kts 197°
2026-05-07 19:25 60.15194 24.80332 9480 ft 259 kts 207°
2026-05-07 19:25 60.13652 24.78464 10086 ft 270 kts 222°
2026-05-07 19:25 60.12154 24.75982 10475 ft 290 kts 223°
2026-05-07 19:25 60.10530 24.73312 10732 ft 314 kts 222°
2026-05-07 19:26 60.08784 24.70471 11144 ft 329 kts 222°
2026-05-07 19:26 60.06983 24.67574 11885 ft 334 kts 222°
2026-05-07 19:26 60.05165 24.64672 12698 ft 336 kts 223°
2026-05-07 19:26 60.03329 24.61740 13503 ft 338 kts 223°
2026-05-07 19:27 60.01487 24.58794 14273 ft 341 kts 224°
2026-05-07 19:27 59.99731 24.55614 15001 ft 340 kts 229°
2026-05-07 19:27 59.98043 24.52287 15741 ft 341 kts 230°
2026-05-07 19:27 59.96371 24.48904 16504 ft 343 kts 230°
2026-05-07 19:28 59.94700 24.45491 17263 ft 345 kts 231°
2026-05-07 19:28 59.93025 24.42067 18014 ft 347 kts 231°
2026-05-07 19:28 59.91330 24.38614 18716 ft 349 kts 231°